Renton, WA
on Friday, November 9, 2012

Friday
Previous Day Next Day
Daily Summary
 ActualAverage (KSEA)Record (KSEA)
Temperature
Mean Temperature °F 47°F  
Max Temperature 46°F 52°F 64°F (1997)
Min Temperature 33°F 41°F 27°F (1948)
Degree Days
Heating Degree Days 25 18  
Month to date heating degree days 155  
Since 1 July heating degree days 752  
Cooling Degree Days 0 0  
Month to date cooling degree days 0  
Year to date cooling degree days 189  
Moisture
Dew Point 32°F   
Average Humidity 78    
Maximum Humidity 93    
Minimum Humidity 52    
Precipitation
Precipitation 0.00 in 0.21 in 2.95 in (1990)
Month to date precipitation 1.82  
Year to date precipitation 27.39  
Snow
Snow 0.00 in in in ()
Month to date snowfall  
Since 1 July snowfall  
Snow Depth in   
Wind
Wind Speed 3 mph   
Max Wind Speed 8 mph   
Max Gust Speed mph   
Visibility 9 miles   
Events Snow   

Key: T is trace of precipitation, MM is missing value
Source: NWS Daily Summary
Time(PST)TemperatureDew PointHumidity Pressure Visibility Wind DirectionWind SpeedGust SpeedPrecipitationEvents Conditions
12:53 AM 39.0°F 36.0°F 89% 29.87 in 10.0 miles SSE 3.5 mph - N/A   Partly Cloudy
1:53 AM 39.0°F 36.0°F 89% 29.88 in 10.0 miles SE 3.5 mph - N/A   Mostly Cloudy
2:53 AM 37.9°F 36.0°F 93% 29.87 in 10.0 miles East 3.5 mph - N/A   Partly Cloudy
3:53 AM 37.9°F 35.1°F 89% 29.88 in 9.0 miles Calm Calm - 0.00 in   Clear
4:53 AM 37.0°F 34.0°F 89% 29.89 in 9.0 miles Calm Calm - 0.00 in   Clear
5:53 AM 36.0°F 34.0°F 93% 29.89 in 9.0 miles ESE 3.5 mph - 0.00 in Snow Light Snow
6:53 AM 35.1°F 33.1°F 92% 29.90 in 5.0 miles SE 4.6 mph - 0.00 in   Mostly Cloudy
7:53 AM 35.1°F 33.1°F 92% 29.91 in 7.0 miles ESE 3.5 mph - N/A   Scattered Clouds
8:53 AM 37.0°F 35.1°F 93% 29.92 in 9.0 miles East 4.6 mph - 0.00 in   Scattered Clouds
9:53 AM 39.9°F 36.0°F 86% 29.92 in 10.0 miles SSE 3.5 mph - 0.00 in   Clear
10:53 AM 44.1°F 35.1°F 71% 29.93 in 10.0 miles Calm Calm - N/A   Clear
11:53 AM 45.0°F 32.0°F 60% 29.92 in 10.0 miles Variable 3.5 mph - N/A   Partly Cloudy
12:53 PM 46.0°F 30.0°F 54% 29.91 in 10.0 miles NW 8.1 mph - N/A   Partly Cloudy
1:53 PM 46.0°F 30.9°F 56% 29.91 in 10.0 miles NW 8.1 mph - N/A   Clear
2:53 PM 46.9°F 30.0°F 52% 29.90 in 10.0 miles North 5.8 mph - N/A   Clear
3:53 PM 45.0°F 28.0°F 52% 29.90 in 10.0 miles WNW 6.9 mph - N/A   Clear
4:53 PM 42.1°F 30.0°F 62% 29.91 in 10.0 miles West 3.5 mph - N/A   Clear
5:53 PM 42.1°F 30.0°F 62% 29.92 in 10.0 miles Calm Calm - N/A   Clear
6:53 PM 39.2°F 30.2°F 70% 29.91 in 10.0 miles Calm Calm - N/A   Clear
7:53 PM 37.0°F 30.0°F 76% 29.94 in 10.0 miles Calm Calm - N/A   Clear
8:53 PM 35.1°F 30.0°F 82% 29.95 in 10.0 miles Calm Calm - N/A   Scattered Clouds
9:53 PM 35.1°F 30.9°F 85% 29.96 in 10.0 miles SE 3.5 mph - N/A   Mostly Cloudy
10:53 PM 34.0°F 30.9°F 89% 29.97 in 10.0 miles Calm Calm - N/A   Clear
11:53 PM 33.1°F 30.9°F 92% 29.98 in 8.0 miles ESE 3.5 mph - 0.00 in   Clear
Moon Phase
Nov. 09 Nov. 13 Nov. 20 Nov. 28 Dec. 06
Sunrise:07:05 AM (PST) Moon Rise:01:51 AM (PST)11/9
Sunset:04:39 PM (PST) Moon Set:02:11 PM (PST)11/9

Copyright © 2014 The Weather Underground, Inc.